Regional Weather Roundup
Issued by NWS

Home | Current Version | Previous Version | Graphics & Text | Print | Product List | Glossary On
Versions: 1 2 3 4 5 6 7 8 9 10 11 12 13 14 15 16 17 18 19 20 21 22 23 24 25 26 27 28 29 30 31 32 33 34 35 36 37 38 39 40 41 42 43 44 45 46 47 48 49 50
000
ASUS43 KDTX 222310
RWRMI
MICHIGAN HOURLY REGIONAL WEATHER ROUNDUP
NATIONAL WEATHER SERVICE DETROIT/PONTIAC MI
700 PM EDT THU JUN 22 2017

NOTE: "FAIR" INDICATES FEW OR NO CLOUDS BELOW 12,000 FEET WITH NO
SIGNIFICANT WEATHER AND/OR OBSTRUCTION TO VISIBILITY.

MIZ047>049-052>055-059>063-066>070-074>076-081>083-230000-
SOUTHEAST LOWER MICHIGAN

CITY           SKY/WX    TMP DP  RH WIND       PRES   REMARKS
ADRIAN         PTSUNNY   76  72  87 W8        29.80F
ALMA           MOSUNNY   82  66  57 W12       29.74F
BAD AXE        CLOUDY    80  69  68 SW7       29.76F
CARO           CLOUDY    81  71  70 W7        29.75F
DETROIT CITY   CLOUDY    86  69  56 SW15      29.78F HX  90
DETROIT        CLOUDY    85  70  60 SW15      29.79F
FLINT          CLOUDY    84  66  54 W12       29.77F
GROSSE ILE     CLOUDY    77  67  71 S21G29    29.80S
HILLSDALE      CLOUDY    77  68  73 S5        29.81F
HOWELL         PTSUNNY   84  65  51 SW9       29.78F

CITY           SKY/WX    TMP DP  RH WIND       PRES   REMARKS
JACKSON        MOSUNNY   83  69  62 SW10      29.79F
LAMBERTVILLE   LGT RAIN  74  70  87 SW3       29.79F
LANSING        MOSUNNY   85  66  53 SW13      29.77F
LAPEER         FAIR      86  64  48 SW10      29.78F
MASON          PTSUNNY   82  69  64 SW5       29.78F
MONROE           N/A     71  67  88 SW18G49   29.76F
MT. CLEMENS    MOSUNNY   87  68  53 SW15G21   29.78F HX  90
PONTIAC        PTSUNNY   85  67  54 SW10      29.78F
PORT HOPE        N/A     82  65  56 VRB6      29.73F
PORT HURON     MOSUNNY   84  63  48 SW6       29.78F
TRI CITIES     CLOUDY    81  69  67 SW6       29.74F
MIDLAND        FAIR      81  64  57 SW5       29.72F
TROY           MOSUNNY   88  63  42 SW17G23   29.80F
SAGINAW HB     MOSUNNY   81  66  61 CALM      29.74F
$$
MIZ043>046-050>051-056>058-064>065-071>073-077>080-230000-
SOUTHWEST LOWER MICHIGAN

CITY           SKY/WX    TMP DP  RH WIND       PRES   REMARKS
BATTLE CREEK   CLOUDY    82  70  66 SW12      29.78F
BENTON HARBOR  CLOUDY    83  71  67 SW13      29.75S
BIG RAPIDS     CLOUDY    77  67  70 SW7       29.73F
COLDWATER      MOSUNNY   79  73  81 S5        29.80S
FREMONT        FAIR      79  67  66 SW7       29.71F
HOLLAND        MOSUNNY   82  70  66 SW8       29.75F
GRAND RAPIDS   PTSUNNY   83  69  62 SW9       29.74F
IONIA          FAIR      84  66  55 SW8       29.74F
KALAMAZOO      CLOUDY    83  68  60 S13       29.77F
LUDINGTON      CLOUDY    73  67  82 SW7       29.74S
MARSHALL       CLOUDY    80  74  80 S6        29.78F
MOUNT PLEASANT CLOUDY    81  64  55 SW6       29.72F
MUSKEGON       PTSUNNY   80  69  69 S10       29.72F
SOUTH HAVEN    CLOUDY    77  74  89 CALM      29.75F
$$
MIZ016>042-230000-
NORTHERN LOWER MICHIGAN

CITY           SKY/WX    TMP DP  RH WIND       PRES   REMARKS
ALPENA         CLOUDY    75  73  93 S5        29.70F
BEAVER ISLAND  LGT RAIN  63  63 100 SW6       29.69R
BELLAIRE       RAIN      70  66  86 SW5       29.72R
CADILLAC       CLOUDY    74  65  71 W9        29.76S
CHARLEVOIX     LGT RAIN  64  64 100 SW8       29.74S
FRANKFORT      CLOUDY    65  60  85 SW6       29.73S
GAYLORD        LGT RAIN  72  63  73 SW21G31   29.74R
GRAYLING       CLOUDY    75  64  68 W9G18     29.75R
HARBOR SPRINGS RAIN      63  63 100 SW5       29.70S VSB 1/2
HOUGHTON LAKE  PTSUNNY   76  65  68 SW12G18   29.75F
MANISTEE       LGT RAIN  73  63  70 SW7       29.74R
OSCODA         CLOUDY    75  69  81 S9        29.71F
PELLSTON       RAIN      67  64  90 SW6       29.70S FOG
ROGERS CITY    LGT RAIN  66  64  96 E3        29.69F
TRAVERSE CITY  CLOUDY    73  66  78 SW8       29.70R
$$
MIZ007>008-015-230000-
EASTERN UPPER MICHIGAN

CITY           SKY/WX    TMP DP  RH WIND       PRES   REMARKS
KINROSS        LGT RAIN  64  64 100 SW5       29.67F FOG
MACKINAC ISLAN LGT RAIN  63  63 100 SW10      29.66F
NEWBERRY       CLOUDY    65  65  97 SW9       29.67R
S. S. MARIE    CLOUDY    67  64  90 CALM      29.65F FOG
MUNISING         N/A     70  67  90 SW6       29.66R
$$
MIZ004>006-011>014-085-230000-
CENTRAL UPPER MICHIGAN

CITY           SKY/WX    TMP DP  RH WIND       PRES   REMARKS
MANISTIQUE     CLOUDY    62  59  90 SW5       29.69R
ESCANABA       CLOUDY    69  69 100 W6        29.68F
MENOMINEE      LGT RAIN  68  65  90 SW6       29.71R
SAWYER-GWINN   PTSUNNY   66  61  82 W8        29.68R
$$
MIZ001>003-009>011-084-230000-
WESTERN UPPER MICHIGAN

CITY           SKY/WX    TMP DP  RH WIND       PRES   REMARKS
IRON MOUNTAIN  CLOUDY    67  61  81 W6        29.70R
HOUGHTON       MOSUNNY   70  48  45 W12       29.65S
COPPER HARBOR    N/A     64  54  69 VRB3      29.61F
$$

ABBREVIATIONS USED IN REMARKS
   TC - TEMPERATURE IN CELSIUS
  WCI - WIND CHILL INDEX
   HX - HEAT INDEX
  VSB - VISIBILITY





USA.gov is the U.S. government's official web portal to all federal, state and local government web resources and services.